Location: Gro�wechsungen
(51.4926°N, 10.6901°E)
Time: 10:36:44
(UTC+00:00)

Cosmos 1833 Rocket - Pass Details

Date: 18 September 2020
Orbit: 831 x 841 km, 71.0° (Epoch: 30 October)

Event Time Altitude Azimuth Distance (km) Brightness Sun altitude
Rises 21:43:07 0° 324° (NW) 3,408 6.9 -33.9°
Reaches altitude 10° 21:45:49 10° 314° (NW) 2,469 5.8 -34.1°
Enters shadow 21:49:22 28° 279° (W) 1,550 4.3 -34.3°
